User: anonymous   Login
Location: Unspecified
(0.0000°N, 0.0000°E)
Time: 11:49:31
(UTC+00:00)
Language:

SKCUBE - Orbit

View from above orbital plane
View from above orbital plane
View from above satellite
View from above satellite

Ground track
Ground track

The orbit data is extracted from the following two-line orbital elements,

1 42789U 17036AA  18168.86068705 +.00000993 +00000-0 +46591-4 0  9991
2 42789 097.4009 228.7179 0013512 076.7346 283.5396 15.21894347054618
Epoch (UTC): 17 June 2018 20:39:23
Eccentricity: 0.0013512
inclination: 97.4009°
perigee height: 491 km
apogee height: 509 km
right ascension of ascending node: 228.7179°
argument of perigee: 76.7346°
revolutions per day: 15.21894347
mean anomaly at epoch: 283.5396°
orbit number at epoch: 5461

The dashed part of the orbit path shows where the satellite is in the earth's shadow,  

DLR